Tekamah, NE

2:29 AM CDT on October 17, 2017 (GMT -0500)
Tekamah

Weather History for KTQE - September, 2012

Change the Weather History Date:

Wednesday, September 19, 2012

  Actual Average Record
Temperature  
Mean Temperature 68 °F -  
Max Temperature 91 °F 77 °F 96 °F (1948)
Min Temperature 46 °F 52 °F 31 °F (1991)
Cooling Degree Days 4    
Growing Degree Days 18 (Base 50)    
Moisture  
Dew Point 39 °F    
Average Humidity 47    
Maximum Humidity 83    
Minimum Humidity 15    
Precipitation  
Precipitation 0.00 in - - ()
Sea Level Pressure  
Sea Level Pressure 29.84 in    
Wind  
Wind Speed 10 mph (SW)    
Max Wind Speed 24 mph    
Max Gust Speed 33 mph    
Visibility 10 miles    
Events      
Averages and records for this station are not official NWS values.
T = Trace of Precipitation, MM = Missing Value Source: NWS Daily Summary

Daily Weather History Graph

Daily Weather History Graph

Search for Another Location

Airport or City:

Trip Planner

Search our weather history database for the weather conditions in past years. The results will help you decide how hot, cold, wet, or windy it might be!

Date:

Astronomy

Sep. 19, 2012 Rise Set
Actual Time 7:09 AM CDT 7:26 PM CDT
Civil Twilight 6:41 AM CDT 7:54 PM CDT
Nautical Twilight 6:09 AM CDT 8:26 PM CDT
Astronomical Twilight 5:35 AM CDT 8:59 PM CDT
Moon 11:25 AM CDT (9/19) 9:31 PM CDT (9/19)
Length of Visible Light 13h 12m
Length of Day
12h 16m
Waxing Crescent, 17% of the Moon is Illuminated
Sep 19
Waxing Crescent
Sep 22
First Quarter
Sep 29
Full
Oct 8
Last Quarter
Oct 15
New

Hourly Weather History & Observations

Time (CDT) Temp. Dew Point Humidity Pressure Visibility Wind Dir Wind Speed Gust Speed Precip Events Conditions
12:54 AM 46.9 °F 39.0 °F 74% 29.89 in 10.0 mi South 8.1 mph - N/A   Clear
1:54 AM 46.9 °F 39.9 °F 77% 29.88 in 10.0 mi SSE 8.1 mph - N/A   Clear
2:54 AM 48.9 °F 42.1 °F 77% 29.85 in 10.0 mi SSE 6.9 mph - N/A   Clear
3:54 AM 46.9 °F 42.1 °F 83% 29.83 in 10.0 mi SE 5.8 mph - N/A   Clear
4:54 AM 46.9 °F 42.1 °F 83% 29.82 in 10.0 mi SSE 6.9 mph - N/A   Clear
5:54 AM 48.9 °F 43.0 °F 80% 29.81 in 10.0 mi SSE 8.1 mph - N/A   Clear
6:54 AM 50.0 °F 44.1 °F 80% 29.81 in 10.0 mi South 8.1 mph - N/A   Clear
7:54 AM 52.0 °F 46.0 °F 80% 29.80 in 10.0 mi South 9.2 mph - N/A   Clear
8:54 AM 59.0 °F 46.9 °F 64% 29.81 in 10.0 mi South 5.8 mph - N/A   Clear
9:54 AM 63.0 °F 46.9 °F 56% 29.80 in 10.0 mi SSW 5.8 mph - N/A   Clear
10:54 AM 71.1 °F 46.9 °F 42% 29.79 in 10.0 mi South 9.2 mph - N/A   Clear
11:54 AM 80.1 °F 45.0 °F 29% 29.78 in 10.0 mi SSW 8.1 mph - N/A   Clear
12:54 PM 89.1 °F 41.0 °F 19% 29.75 in 10.0 mi WSW 10.4 mph 17.3 mph N/A   Clear
1:36 PM 91.4 °F 37.4 °F 15% 29.78 in 10.0 mi NW 19.6 mph 25.3 mph N/A   Clear
1:54 PM 90.0 °F 37.0 °F 15% 29.76 in 10.0 mi NNW 23.0 mph 33.4 mph N/A   Clear
2:54 PM 84.9 °F 37.9 °F 19% 29.80 in 10.0 mi NNW 24.2 mph 31.1 mph N/A   Clear
3:54 PM 84.0 °F 36.0 °F 18% 29.82 in 10.0 mi NW 18.4 mph 32.2 mph N/A   Clear
4:54 PM 82.9 °F 33.1 °F 17% 29.83 in 10.0 mi NNW 19.6 mph 25.3 mph N/A   Clear
5:54 PM 80.1 °F 32.0 °F 17% 29.85 in 10.0 mi NNW 21.9 mph 28.8 mph N/A   Clear
6:54 PM 75.0 °F 28.9 °F 18% 29.87 in 10.0 mi NNW 12.7 mph 24.2 mph N/A   Clear
8:54 PM 64.0 °F 32.0 °F 30% 29.94 in 10.0 mi NW 9.2 mph - N/A   Clear
9:54 PM 60.1 °F 32.0 °F 35% 29.96 in 10.0 mi WNW 5.8 mph - N/A   Clear
10:54 PM 55.9 °F 33.1 °F 42% 29.97 in 10.0 mi West 6.9 mph - N/A   Clear
11:54 PM 50.0 °F 33.1 °F 52% 29.98 in 10.0 mi West 6.9 mph - N/A   Clear